404 - Page Not Found

404

Error - Page Not Found


Please check the URL.

Otherwise, click here to be redirected to the homepage.

  • Currently

    Reported at Minneapolis, Minneapolis-St. Paul International Airport, MN
    1:53 PM CST FRI FEB 23 2018
  • 32°F0°C
  • Partly Cloudy
    Partly Cloudy
  • Feels Like:25°F-4°CDew Point:21°F-6°CHumidity:64% Winds:SSW 9 mph 14 kph
    Pressure:30.18 in1022 hPaVisibility:10.00 miles16090.00 meters
Time Weather Temp Dew Point
Humidity Winds Visibility Pressure Precipitation
1 hr 24 hr
Wednesday, February 21
00:53 00:53 Mostly Cloudy Mostly Cloudy 10°F-12°C 5°F-15°C 80% SE 5 mphSE 7 kph 10.0 miles16.1 km 30.62 in1037 hPa 0.00 in0.00 mm --
23:53 23:53 Mostly Cloudy Mostly Cloudy 13°F-11°C 5°F-15°C 70% CalmCalm 10.0 miles16.1 km 30.65 in1038 hPa 0.00 in0.00 mm --
22:53 22:53 Mostly Cloudy Mostly Cloudy 15°F-9°C 5°F-15°C 64% S 5 mphS 7 kph 10.0 miles16.1 km 30.65 in1038 hPa 0.00 in0.00 mm --
21:53 21:53 Mostly Cloudy Mostly Cloudy 16°F-9°C 5°F-15°C 62% S 5 mphS 7 kph 10.0 miles16.1 km 30.65 in1038 hPa 0.00 in0.00 mm --
20:53 20:53 Partly Cloudy Partly Cloudy 16°F-9°C 5°F-15°C 62% SSW 3 mphSSW 6 kph 10.0 miles16.1 km 30.65 in1038 hPa 0.00 in0.00 mm --
19:53 19:53 Partly Cloudy Partly Cloudy 17°F-8°C 4°F-16°C 56% SSW 6 mphSSW 9 kph 10.0 miles16.1 km 30.65 in1038 hPa 0.00 in0.00 mm --
18:53 18:53 Partly Cloudy Partly Cloudy 18°F-8°C 3°F-16°C 52% SW 7 mphSW 11 kph 10.0 miles16.1 km 30.65 in1038 hPa 0.00 in0.00 mm --
17:53 17:53 Partly Cloudy Partly Cloudy 19°F-7°C 2°F-17°C 47% SW 7 mphSW 11 kph 10.0 miles16.1 km 30.65 in1038 hPa 0.00 in0.00 mm --
16:53 16:53 Partly Cloudy Partly Cloudy 19°F-7°C 3°F-16°C 49% SW 7 mphSW 11 kph 10.0 miles16.1 km 30.62 in1037 hPa 0.00 in0.00 mm --
15:53 15:53 Mostly Sunny Mostly Sunny 18°F-8°C 3°F-16°C 52% SW 8 mphSW 13 kph 10.0 miles16.1 km 30.62 in1037 hPa 0.00 in0.00 mm --
14:53 14:53 Mostly Sunny Mostly Sunny 17°F-8°C 5°F-15°C 59% SSW 7 mphSSW 11 kph 10.0 miles16.1 km 30.62 in1037 hPa 0.00 in0.00 mm --
13:53 13:53 Mostly Sunny Mostly Sunny 16°F-9°C 3°F-16°C 56% SSW 7 mphSSW 11 kph 10.0 miles16.1 km 30.62 in1037 hPa 0.00 in0.00 mm --
12:53 12:53 Partly Cloudy Partly Cloudy 15°F-9°C 4°F-16°C 61% WSW 7 mphWSW 11 kph 10.0 miles16.1 km 30.65 in1038 hPa 0.00 in0.00 mm --
11:53 11:53 Mostly Sunny Mostly Sunny 12°F-11°C 3°F-16°C 67% SW 6 mphSW 9 kph 10.0 miles16.1 km 30.62 in1037 hPa 0.00 in0.00 mm --
10:53 10:53 Mostly Sunny Mostly Sunny 8°F-13°C 1°F-17°C 73% SW 6 mphSW 9 kph 10.0 miles16.1 km 30.59 in1036 hPa 0.00 in0.00 mm --
09:53 09:53 Mostly Sunny Mostly Sunny 5°F-15°C 0°F-18°C 79% SW 8 mphSW 13 kph 10.0 miles16.1 km 30.59 in1036 hPa 0.00 in0.00 mm --
08:53 08:53 Mostly Sunny Mostly Sunny 3°F-16°C -1°F-18°C 83% SW 3 mphSW 6 kph 10.0 miles16.1 km 30.56 in1035 hPa 0.00 in0.00 mm --
07:53 07:53 Mostly Clear Mostly Clear 3°F-16°C -1°F-18°C 83% SW 5 mphSW 7 kph 10.0 miles16.1 km 30.56 in1035 hPa 0.00 in0.00 mm --
06:53 06:53 Clear Clear 3°F-16°C -1°F-18°C 83% W 7 mphW 11 kph 10.0 miles16.1 km 30.53 in1034 hPa 0.00 in0.00 mm --
05:53 05:53 Clear Clear 4°F-16°C 0°F-18°C 83% W 6 mphW 9 kph 10.0 miles16.1 km 30.5 in1033 hPa 0.00 in0.00 mm --
04:53 04:53 Clear Clear 5°F-15°C 1°F-17°C 83% W 6 mphW 9 kph 10.0 miles16.1 km 30.48 in1032 hPa 0.00 in0.00 mm --
03:53 03:53 Clear Clear 6°F-14°C 1°F-17°C 79% CalmCalm 10.0 miles16.1 km 30.45 in1031 hPa 0.00 in0.00 mm --
02:53 02:53 Mostly Clear Mostly Clear 7°F-14°C 2°F-17°C 80% WNW 7 mphWNW 11 kph 10.0 miles16.1 km 30.42 in1030 hPa 0.00 in0.00 mm --
01:53 01:53 Mostly Clear Mostly Clear 8°F-13°C 2°F-17°C 76% W 8 mphW 13 kph 10.0 miles16.1 km 30.39 in1029 hPa 0.00 in0.00 mm --
404 - Page Not Found

404

Error - Page Not Found


Please check the URL.

Otherwise, click here to be redirected to the homepage.